This demonstration page uses our WeatherBlox Daily Observations layout. Learn more.

Left ArrowRight Arrow

39.12711, -84.51439

Hourly Observations for August 31, 2018

Temp ( °F °C ) Dew Point ( °F °C ) Humidity (%) Winds ( mph kmh ) Pressure ( in mb ) Visibility ( mi km ) Precip ( " mm )
12:20 am 00:20 Clear with Mist and Fog 68 20 68 20 100 100 N N/A 30.12 1020 1 1 N/A
12:24 am 00:24 Mostly Cloudy with Fog 67 19.4 67 19.4 100 100 N N/A 30.12 1020 0 0 N/A
12:40 am 00:40 Mostly Cloudy with Mist and Fog 68 20 68 20 100 100 N N/A 30.09 1019 1 1 N/A
12:44 am 00:44 Mostly Clear with Mist and Fog 68 20 68 20 100 100 N N/A 30.09 1019 1 2 N/A
12:53 am 00:53 Mostly Cloudy with Mist and Fog 67 19.4 67 19.4 100 100 N N/A 30.12 1020 1 2 N/A
1:05 am 01:05 Mostly Clear with Mist and Fog 68 20 68 20 100 100 N N/A 30.09 1019 2 3 N/A
1:16 am 01:16 Clear with Mist and Fog 68 20 68 20 100 100 N N/A 30.09 1019 4 6 N/A
1:34 am 01:34 Clear with Mist and Fog 66 18.9 66 18.9 100 100 N N/A 30.12 1020 2 2 N/A
1:37 am 01:37 Mostly Cloudy with Mist and Fog 67 19.4 66 18.9 97 97 N N/A 30.12 1020 1 1 N/A
1:53 am 01:53 Mostly Cloudy with Fog 66 18.9 66 18.9 100 100 N N/A 30.12 1020 0 0 N/A
2:04 am 02:04 Mostly Cloudy with Mist and Fog 67 19.4 67 19.4 100 100 N N/A 30.09 1019 1 2 N/A
2:12 am 02:12 Clear with Mist and Fog 66 18.9 66 18.9 100 100 N N/A 30.09 1019 1 2 N/A
2:37 am 02:37 Clear with Fog 65 18.3 65 18.3 100 100 N N/A 30.09 1019 0 0 N/A
2:49 am 02:49 Clear with Mist and Fog 66 19 66 19 100 100 N N/A 30.09 1019 1 2 N/A
2:53 am 02:53 Clear with Mist and Fog 66 18.9 66 18.9 100 100 N N/A 30.11 1020 6 10 N/A
3:05 am 03:05 Clear with Mist and Fog 66 18.9 66 18.9 100 100 N N/A 30.09 1019 1 2 N/A
3:13 am 03:13 Clear with Mist and Fog 66 18.9 66 18.9 100 100 N N/A 30.09 1019 1 1 N/A
3:23 am 03:23 Clear with Mist and Fog 65 18.3 65 18.3 100 100 N N/A 30.09 1019 1 2 N/A
3:28 am 03:28 Clear with Mist and Fog 66 18.9 66 18.9 100 100 N N/A 30.09 1019 3 5 N/A
3:34 am 03:34 Clear with Mist and Fog 67 19.4 67 19.4 100 100 N N/A 30.09 1019 2 3 N/A
3:44 am 03:44 Clear with Fog 66 18.9 66 18.9 100 100 N N/A 30.09 1019 0 0 N/A
3:53 am 03:53 Clear with Fog 66 18.9 66 18.9 100 100 N N/A 30.11 1020 0 0 N/A
4:05 am 04:05 Clear with Mist and Fog 65 18.3 65 18.3 100 100 N N/A 30.09 1019 1 1 N/A
4:13 am 04:13 Clear with Mist and Fog 65 18.3 65 18.3 100 100 N N/A 30.09 1019 2 2 N/A
4:21 am 04:21 Clear with Mist and Fog 64 17.8 64 17.8 100 100 N N/A 30.09 1019 3 4 N/A
4:24 am 04:24 Mostly Clear with Mist and Fog 65 18.3 65 18.3 100 100 N N/A 30.09 1019 2 3 N/A
4:33 am 04:33 Partly Cloudy with Mist and Fog 64 17.8 64 17.8 100 100 N N/A 30.09 1019 3 5 N/A
4:42 am 04:42 Partly Cloudy with Mist and Fog 65 18.3 65 18.3 100 100 N N/A 30.09 1019 2 3 N/A
4:46 am 04:46 Mostly Clear with Mist and Fog 65 18.3 65 18.3 100 100 ENE 3 6 30.09 1019 3 5 N/A
4:53 am 04:53 Mostly Clear with Mist and Fog 65 18.3 65 18.3 100 100 N N/A 30.12 1020 4 6 N/A
5:08 am 05:08 Clear with Mist and Fog 65 18.3 65 18.3 100 100 N N/A 30.09 1019 2 2 N/A
5:19 am 05:19 Clear with Mist and Fog 66 18.9 66 18.9 100 100 N N/A 30.09 1019 3 5 N/A
5:23 am 05:23 Clear with Mist and Fog 65 18.3 65 18.3 100 100 N N/A 30.09 1019 2 2 N/A
5:27 am 05:27 Mostly Cloudy with Mist and Fog 65 18.3 65 18.3 100 100 N N/A 30.09 1019 1 1 N/A
5:53 am 05:53 Mostly Cloudy with Fog 65 18.3 65 18.3 100 100 N N/A 30.12 1020 1 1 N/A
5:59 am 05:59 Mostly Clear with Mist and Fog 65 18.3 65 18.3 100 100 N N/A 30.09 1019 1 2 N/A
6:10 am 06:10 Mostly Cloudy with Mist and Fog 64 17.8 64 17.8 100 100 N N/A 30.12 1020 1 1 N/A
6:21 am 06:21 Mostly Cloudy with Mist and Fog 64 17.8 64 17.8 100 100 N N/A 30.12 1020 1 1 N/A
6:40 am 06:40 Cloudy with Mist and Fog 65 18.3 65 18.3 100 100 N N/A 30.12 1020 2 2 N/A
6:53 am 06:53 Clear with Patchy Fog 64 17.8 64 17.8 100 100 ENE 3 6 30.13 1020 5 8 N/A
7:53 am 07:53 Sunny with Patchy Fog 66 18.9 66 18.9 100 100 N N/A 30.13 1020 5 8 N/A
8:53 am 08:53 Sunny 70 21.1 68 20 93 93 NNE 3 6 30.14 1021 7 11 N/A
9:53 am 09:53 Partly Cloudy 74 23.3 70 21.1 88 88 NNE 5 7 30.13 1020 10 16 N/A
10:53 am 10:53 Mostly Sunny 77 25 72 22.2 85 85 WSW 3 6 30.14 1021 10 16 N/A
11:53 am 11:53 Mostly Sunny 82 27.8 74 23.3 77 77 N N/A 30.14 1021 10 16 N/A
12:53 pm 12:53 Mostly Cloudy 85 29.4 72 22.2 65 65 N N/A 30.14 1021 10 16 N/A
1:53 pm 13:53 Partly Cloudy 85 29.4 72 22.2 65 65 S 3 6 30.12 1020 10 16 N/A
2:53 pm 14:53 Partly Cloudy 87 30.6 72 22.2 61 61 VRB 5 7 30.09 1019 10 16 N/A
3:53 pm 15:53 Partly Cloudy 89 31.7 73 22.8 59 59 ENE 3 6 30.07 1018 10 16 N/A
4:53 pm 16:53 Partly Cloudy 89 31.7 72 22.2 57 57 NNE 3 6 30.06 1018 10 16 N/A
5:53 pm 17:53 Mostly Sunny 85 29.4 74 23.3 70 70 SSE 6 9 30.05 1018 10 16 N/A
6:53 pm 18:53 Sunny 82 27.8 76 24.4 82 82 N N/A 30.05 1018 10 16 N/A
7:53 pm 19:53 Sunny 79 26.1 76 24.4 90 90 N N/A 30.06 1018 10 16 N/A
8:53 pm 20:53 Mostly Clear 80 26.7 73 22.8 79 79 SSE 7 11 30.09 1019 10 16 N/A
9:08 pm 21:08 Mostly Cloudy with Nearby Thunderstorms 80 26.7 72 22.2 76 76 S 12 19 30.09 1019 10 16 N/A
9:23 pm 21:23 Mostly Cloudy with Thunderstorms 78 25.6 69 20.6 74 74 SSW 13 20 30.09 1019 10 16 N/A
9:48 pm 21:48 Cloudy with Nearby Thunderstorms 75 24 70 21 83 83 SW 7 11 30.12 1020 9 14 0.01 0.25
9:53 pm 21:53 Cloudy with Light Rain 74 23.3 71 21.7 91 91 SW 6 9 30.13 1020 9 14 0.01 0.25
10:02 pm 22:02 Mostly Cloudy with Nearby Thunderstorms 74 23.3 71 21.7 91 91 SW 7 11 30.12 1020 10 16 N/A
10:17 pm 22:17 Partly Cloudy with Light Rain 73 22.8 71 21.7 94 94 S 3 6 30.12 1020 10 16 N/A
10:25 pm 22:25 Partly Cloudy with Nearby Thunderstorms 73 22.8 72 22.2 96 96 N N/A 30.12 1020 9 14 0.01 0.25
10:40 pm 22:40 Mostly Clear with Light Rain 73 22.8 71 21.7 94 94 N N/A 30.12 1020 10 16 0.01 0.25
10:53 pm 22:53 Clear with Light Rain 73 22.8 71 21.7 94 94 S 3 6 30.14 1021 10 16 0.01 0.25
11:53 pm 23:53 Mostly Clear with Light Rain 71 21.7 71 21.7 100 100 S 3 6 30.14 1021 7 11 0.04 1.02

Powered by AerisWeather